Lehigh Valley, PA

6:42 AM EST on February 28, 2017 (GMT -0500)
Lehigh Valley International

Weather History for KABE - February, 2013

Change the Weather History Date:

Thursday, February 14, 2013

  Actual Average Record
Temperature  
Mean Temperature 35 °F 30 °F  
Max Temperature 43 °F 39 °F 64 °F (1946)
Min Temperature 27 °F 21 °F -1 °F (1979)
Degree Days  
Heating Degree Days 30 35  
Month to date heating degree days 516 500  
Since 1 July heating degree days 3509 3850  
Cooling Degree Days 0 0  
Month to date cooling degree days 0 0  
Year to date cooling degree days 0 0  
Moisture  
Dew Point 28 °F    
Average Humidity 73    
Maximum Humidity 96    
Minimum Humidity 49    
Precipitation  
Precipitation T in 0.09 in 1.09 in (2007)
Month to date precipitation 0.91 1.35  
Year to date precipitation 4.90 4.38  
Snow  
Snow T in 0.40 in 11.50 in (1914)
Month to date snowfall 7.4 5.8  
Since 1 July snowfall 16.9 21.7  
Snow Depth T in    
Sea Level Pressure  
Sea Level Pressure 29.90 in    
Wind  
Wind Speed 5 mph (WSW)    
Max Wind Speed 13 mph    
Max Gust Speed 15 mph    
Visibility 7 miles    
Events      
T = Trace of Precipitation, MM = Missing Value Source: NWS Daily Summary

Daily Weather History Graph

Daily Weather History Graph

Search for Another Location

Airport or City:

Trip Planner

Search our weather history database for the weather conditions in past years. The results will help you decide how hot, cold, wet, or windy it might be!

Date:

Astronomy

Feb. 14, 2013 Rise Set
Actual Time 6:56 AM EST 5:35 PM EST
Civil Twilight 6:28 AM EST 6:03 PM EST
Nautical Twilight 5:56 AM EST 6:35 PM EST
Astronomical Twilight 5:24 AM EST 7:07 PM EST
Moon 8:55 AM EST (2/14) 10:38 PM EST (2/14)
Length of Visible Light 11h 35m
Length of Day
10h 39m
Waxing Crescent, 21% of the Moon is Illuminated
Feb 14
Waxing Crescent
Feb 17
First Quarter
Feb 25
Full
Mar 4
Last Quarter
Mar 11
New

Hourly Weather History & Observations

Time (EST) Temp. Windchill Dew Point Humidity Pressure Visibility Wind Dir Wind Speed Gust Speed Precip Events Conditions
12:01 AM 33.8 °F 29.6 °F 32.0 °F 93% 29.72 in 2.5 mi WSW 4.6 mph - 0.00 in   Overcast
12:14 AM 33.8 °F 29.6 °F 32.0 °F 93% 29.72 in 1.8 mi WSW 4.6 mph - 0.00 in   Overcast
12:38 AM 33.8 °F 29.6 °F 32.0 °F 93% 29.72 in 2.0 mi WSW 4.6 mph - 0.00 in   Mostly Cloudy
12:51 AM 33.1 °F 27.7 °F 30.9 °F 92% 29.74 in 2.5 mi WSW 5.8 mph - 0.00 in   Mostly Cloudy
1:30 AM 33.8 °F 30.8 °F 32.0 °F 93% 29.74 in 3.0 mi West 3.5 mph - N/A   Overcast
1:51 AM 33.8 °F - 32.0 °F 93% 29.76 in 3.0 mi Calm Calm - N/A   Overcast
2:04 AM 33.8 °F 29.6 °F 32.0 °F 93% 29.77 in 2.0 mi West 4.6 mph - N/A   Overcast
2:51 AM 32.0 °F 27.5 °F 30.9 °F 96% 29.79 in 2.0 mi SW 4.6 mph - N/A   Overcast
3:51 AM 32.0 °F 26.4 °F 30.2 °F 93% 29.79 in 2.0 mi SW 5.8 mph - N/A   Overcast
4:51 AM 30.9 °F - 28.9 °F 92% 29.83 in 4.0 mi Calm Calm - N/A   Clear
5:51 AM 28.9 °F 21.1 °F 27.0 °F 92% 29.86 in 7.0 mi WSW 8.1 mph - N/A   Clear
6:51 AM 30.9 °F 25.2 °F 28.0 °F 89% 29.90 in 7.0 mi West 5.8 mph - N/A   Clear
7:51 AM 28.9 °F 23.9 °F 27.0 °F 92% 29.94 in 4.0 mi WSW 4.6 mph - N/A   Clear
8:51 AM 35.1 °F 30.1 °F 28.0 °F 76% 29.96 in 8.0 mi WNW 5.8 mph - N/A   Clear
9:51 AM 37.0 °F 31.6 °F 28.0 °F 70% 29.97 in 10.0 mi NNW 6.9 mph - N/A   Clear
10:51 AM 37.9 °F 32.7 °F 27.0 °F 65% 29.97 in 10.0 mi WNW 6.9 mph - N/A   Partly Cloudy
11:41 AM 39.2 °F - 26.6 °F 61% 29.96 in 10.0 mi Calm Calm - N/A   Mostly Cloudy
11:51 AM 39.9 °F 36.7 °F 28.0 °F 63% 29.97 in 10.0 mi SW 4.6 mph - N/A   Mostly Cloudy
12:51 PM 42.1 °F 36.6 °F 28.0 °F 58% 29.95 in 10.0 mi West 9.2 mph - N/A   Mostly Cloudy
12:58 PM 41.0 °F 35.8 °F 26.6 °F 57% 29.94 in 10.0 mi West 8.1 mph - N/A   Clear
1:51 PM 42.1 °F 36.6 °F 26.1 °F 53% 29.96 in 10.0 mi WSW 9.2 mph - 0.00 in   Clear
2:51 PM 43.0 °F 37.7 °F 27.0 °F 53% 29.96 in 10.0 mi SW 9.2 mph - 0.00 in   Clear
3:51 PM 43.0 °F 39.5 °F 26.1 °F 51% 29.95 in 10.0 mi SSW 5.8 mph - N/A   Clear
4:51 PM 43.0 °F 39.5 °F 24.1 °F 47% 29.96 in 10.0 mi SW 5.8 mph - N/A   Clear
5:51 PM 39.0 °F 36.8 °F 24.1 °F 55% 29.97 in 10.0 mi West 3.5 mph - N/A   Clear
6:51 PM 35.1 °F 32.2 °F 24.1 °F 64% 29.99 in 10.0 mi SW 3.5 mph - N/A   Clear
7:51 PM 34.0 °F 29.8 °F 24.1 °F 67% 29.99 in 10.0 mi SW 4.6 mph - N/A   Clear
8:51 PM 36.0 °F 33.3 °F 25.0 °F 64% 30.00 in 10.0 mi West 3.5 mph - N/A   Clear
9:51 PM 30.9 °F - 24.1 °F 76% 29.99 in 10.0 mi Calm Calm - N/A   Clear
10:51 PM 28.9 °F 25.2 °F 24.1 °F 82% 29.99 in 8.0 mi North 3.5 mph - N/A   Clear
11:51 PM 28.9 °F - 25.0 °F 85% 29.99 in 8.0 mi Calm Calm - N/A   Scattered Clouds